This demonstration page uses our WeatherBlox Daily Observations layout. Learn more.

40.92945, -100.16068

Hourly Observations for June 4, 2018

Temp ( °F °C ) Dew Point ( °F °C ) Humidity (%) Winds ( mph kmh ) Pressure ( in mb ) Visibility ( mi km ) Precip ( " mm )
12:15 am 00:15 Clear 64 18 52 11.1 64 64 ESE 8 13 30 1016 10 16.0934 0 0
12:35 am 00:35 Clear 64 17.6 52 11 65 65 ESE 8 13 30 1016 10 16.0934 0 0
12:55 am 00:55 Clear 63 17.2 51 10.7 66 66 SE 7 11 30 1016 10 16.0934 0 0
1:15 am 01:15 Clear 63 17.1 51 10.7 66 66 SE 8 13 29.97 1015 10 16.0934 0 0
1:35 am 01:35 Clear 63 17.4 51 10.6 65 65 SE 8 13 30 1016 10 16.0934 0 0
1:55 am 01:55 Clear 64 17.5 51 10.5 64 64 SE 7 11 30 1016 10 16.0934 0 0
2:15 am 02:15 Clear 64 17.7 51 10.6 63 63 SE 7 11 30 1016 10 16.0934 0 0
2:35 am 02:35 Partly Cloudy 64 18 51 10.7 63 63 SE 7 11 30 1016 10 16.0934 0 0
2:55 am 02:55 Partly Cloudy 66 18.7 50 10.1 58 58 SE 7 11 30 1016 10 16.0934 0 0
3:15 am 03:15 Partly Cloudy 65 18.3 51 10.6 61 61 ESE 6 9 30 1016 10 16.0934 0 0
3:35 am 03:35 Partly Cloudy 65 18.6 51 10.4 59 59 SE 8 13 30 1016 10 16.0934 0 0
3:55 am 03:55 Partly Cloudy 67 19.2 50 9.9 55 55 SSE 13 20 29.97 1015 10 16.0934 0 0
4:15 am 04:15 Mostly Cloudy 67 19.6 49 9.6 53 53 SSE 18 30 29.97 1015 10 16.0934 0 0
4:35 am 04:35 Partly Cloudy 67 19.2 50 9.8 55 55 SSE 17 28 29.97 1015 10 16.0934 0 0
4:55 am 04:55 Partly Cloudy 67 19.4 49 9.7 54 54 SE 15 24 29.97 1015 10 16.0934 0 0
5:15 am 05:15 Cloudy 67 19.5 50 10.1 55 55 SSE 12 19 29.97 1015 10 16.0934 0 0
5:35 am 05:35 Mostly Cloudy 68 20 51 10.3 54 54 SSE 13 20 29.97 1015 10 16.0934 0 0
5:55 am 05:55 Partly Cloudy 67 19.6 51 10.8 57 57 SSE 14 22 29.97 1015 10 16.0934 0 0
6:15 am 06:15 Mostly Cloudy with Light Rain 65 18.6 53 11.7 64 64 S 15 24 29.97 1015 10 16.0934 0 0
6:35 am 06:35 Cloudy with Light Rain 65 18.3 54 12.4 69 69 S 10 17 29.97 1015 10 16.0934 0 0
6:55 am 06:55 Cloudy with Light Rain 63 17.2 56 13.2 77 77 S 13 20 29.97 1015 10 16.0934 0 0
7:15 am 07:15 Cloudy with Light Rain 63 17.1 57 13.7 81 81 S 16 26 29.97 1015 10 16.0934 0.01 0.254
7:35 am 07:35 Cloudy with Light Rain 63 17.2 57 13.7 80 80 SSE 15 24 29.97 1015 10 16.0934 0.01 0.254
7:55 am 07:55 Cloudy with Light Drizzle 64 17.5 57 13.8 79 79 SSE 15 24 29.97 1015 10 16.0934 0.01 0.254
8:15 am 08:15 Cloudy with Light Drizzle 63 17.2 57 14 82 82 S 14 22 29.97 1015 10 16.0934 0 0
8:35 am 08:35 Cloudy with Light Rain 64 17.5 58 14.4 82 82 S 16 26 29.97 1015 10 16.0934 0.01 0.254
8:55 am 08:55 Cloudy with Light Drizzle 65 18.1 57 14 77 77 SSE 16 26 29.97 1015 10 16.0934 0.01 0.254
9:15 am 09:15 Cloudy with Light Drizzle 66 18.7 58 14.2 75 75 S 17 28 29.97 1015 10 16.0934 0 0
9:35 am 09:35 Partly Cloudy 67 19.6 57 13.7 69 69 S 20 31 29.97 1015 10 16.0934 0 0
9:55 am 09:55 Sunny 68 19.9 56 13.5 67 67 S 16 26 29.97 1015 10 16.0934 0 0
10:15 am 10:15 Partly Cloudy 68 19.9 57 13.8 68 68 SSE 14 22 29.97 1015 10 16.0934 0 0
10:35 am 10:35 Mostly Cloudy 69 20.4 57 14 67 67 SSE 13 20 29.94 1014 10 16.0934 0 0
10:55 am 10:55 Cloudy 69 20.7 57 14 66 66 S 17 28 29.94 1014 10 16.0934 0 0
11:15 am 11:15 Mostly Cloudy 70 21.2 57 13.8 63 63 S 21 33 29.94 1014 10 16.0934 0 0
11:35 am 11:35 Mostly Cloudy 73 22.7 59 15 62 62 S 23 37 29.94 1014 10 16.0934 0 0
11:55 am 11:55 Mostly Cloudy 74 23.6 57 13.9 55 55 S 25 41 29.88 1012 10 16.0934 0 0
12:15 pm 12:15 Partly Cloudy 76 24.2 58 14.2 54 54 S 18 30 29.88 1012 10 16.0934 0 0
12:35 pm 12:35 Sunny 77 24.8 58 14.6 53 53 S 24 39 29.88 1012 10 16.0934 0 0
12:55 pm 12:55 Sunny 77 24.8 59 15.1 55 55 S 25 41 29.88 1012 10 16.0934 0 0
1:15 pm 13:15 Sunny 78 25.5 60 15.7 55 55 S 26 43 29.85 1011 10 16.0934 0 0
1:35 pm 13:35 Sunny 79 26 59 15.2 51 51 S 23 37 29.85 1011 10 16.0934 0 0
1:55 pm 13:55 Sunny 80 26.5 59 15 49 49 S 22 35 29.85 1011 10 16.0934 0 0
2:15 pm 14:15 Sunny 80 26.7 60 15.7 51 51 S 13 20 29.8 1009 10 16.0934 0 0
2:35 pm 14:35 Sunny 82 27.5 56 13.6 42 42 S 22 35 29.8 1009 10 16.0934 0 0
2:55 pm 14:55 Sunny 82 28 56 13.3 40 40 SSW 18 30 29.8 1009 10 16.0934 0 0
3:15 pm 15:15 Sunny 83 28.3 55 12.5 38 38 SSW 20 31 29.77 1008 10 16.0934 0 0
3:35 pm 15:35 Sunny 83 28.5 54 12.3 37 37 SSW 18 30 29.77 1008 10 16.0934 0 0
3:55 pm 15:55 Sunny 83 28.5 54 12.3 37 37 S 18 30 29.77 1008 10 16.0934 0 0
4:15 pm 16:15 Sunny 83 28.6 56 13.1 38 38 S 18 30 29.77 1008 10 16.0934 0 0
4:35 pm 16:35 Sunny 83 28.5 55 12.7 38 38 S 18 30 29.77 1008 10 16.0934 0 0
4:55 pm 16:55 Sunny 83 28.5 56 13.3 39 39 S 18 30 29.77 1008 10 16.0934 0 0
5:15 pm 17:15 Sunny 83 28.5 55 12.6 37 37 S 20 31 29.77 1008 10 16.0934 0 0
5:35 pm 17:35 Sunny 83 28.5 54 12.3 37 37 S 15 24 29.77 1008 10 16.0934 0 0
5:55 pm 17:55 Sunny 83 28.4 55 12.6 38 38 S 18 30 29.74 1007 10 16.0934 0 0
6:15 pm 18:15 Sunny 83 28.3 54 12.4 37 37 S 16 26 29.74 1007 10 16.0934 0 0
6:35 pm 18:35 Sunny 82 28 55 12.9 39 39 S 13 20 29.74 1007 10 16.0934 0 0
6:55 pm 18:55 Sunny 82 27.8 56 13.2 41 41 S 14 22 29.74 1007 10 16.0934 0 0
7:15 pm 19:15 Sunny 82 27.5 55 12.7 40 40 S 14 22 29.74 1007 10 16.0934 0 0
7:35 pm 19:35 Sunny 81 27.1 55 13 42 42 S 12 19 29.74 1007 10 16.0934 0 0
7:55 pm 19:55 Sunny 79 26.3 56 13.5 45 45 SSE 12 19 29.74 1007 10 16.0934 0 0
8:15 pm 20:15 Sunny 79 25.9 55 12.8 44 44 SSE 13 20 29.74 1007 10 16.0934 0 0
8:35 pm 20:35 Sunny 77 25 54 12.4 46 46 SSE 13 20 29.77 1008 10 16.0934 0 0
8:55 pm 20:55 Sunny 75 24.1 53 11.8 46 46 SSE 12 19 29.77 1008 10 16.0934 0 0
9:15 pm 21:15 Clear 73 22.7 53 11.7 50 50 SSE 10 17 29.77 1008 10 16.0934 0 0
9:35 pm 21:35 Clear 72 22 54 12 53 53 SSE 10 17 29.8 1009 10 16.0934 0 0
9:55 pm 21:55 Clear 70 21.2 54 12 56 56 SSE 10 17 29.8 1009 10 16.0934 0 0
10:15 pm 22:15 Clear 70 21 54 12 57 57 SSE 10 17 29.83 1010 10 16.0934 0 0
10:35 pm 22:35 Clear 69 20.5 54 12.1 59 59 SSE 10 17 29.83 1010 10 16.0934 0 0
10:55 pm 22:55 Clear 69 20.5 54 12.1 59 59 SSE 9 15 29.83 1010 10 16.0934 0 0
11:15 pm 23:15 Clear 69 20.6 54 12 58 58 SSE 13 20 29.8 1009 10 16.0934 0 0
11:35 pm 23:35 Clear 69 20.7 54 12 58 58 SSE 13 20 29.83 1010 10 16.0934 0 0
11:55 pm 23:55 Clear 69 20.5 53 11.8 58 58 SSE 10 17 29.83 1010 10 16.0934 0 0

Powered by AerisWeather